﻿測定場所 (Monitoring sites),日付 (Measurement date),時間 (Measurement time),線量率 最大値 (max) μGy/h,線量率 最小値 (min) μGy/h,線量率 平均値 (average) μGy/h,
新宿 (Shinjuku),2021-10-24,23:01～24:00,0.0388,0.0339,0.0359,
新宿 (Shinjuku),2021-10-24,22:01～23:00,0.0378,0.0346,0.0361,
新宿 (Shinjuku),2021-10-24,21:01～22:00,0.0385,0.0333,0.0360,
新宿 (Shinjuku),2021-10-24,20:01～21:00,0.0387,0.0336,0.0359,
新宿 (Shinjuku),2021-10-24,19:01～20:00,0.0386,0.0340,0.0361,
新宿 (Shinjuku),2021-10-24,18:01～19:00,0.0401,0.0337,0.0362,
新宿 (Shinjuku),2021-10-24,17:01～18:00,0.0389,0.0336,0.0359,
新宿 (Shinjuku),2021-10-24,16:01～17:00,0.0385,0.0334,0.0362,
新宿 (Shinjuku),2021-10-24,15:01～16:00,0.0385,0.0345,0.0361,
新宿 (Shinjuku),2021-10-24,14:01～15:00,0.0397,0.0344,0.0363,
新宿 (Shinjuku),2021-10-24,13:01～14:00,0.0395,0.0347,0.0365,
新宿 (Shinjuku),2021-10-24,12:01～13:00,0.0388,0.0344,0.0362,
新宿 (Shinjuku),2021-10-24,11:01～12:00,0.0403,0.0347,0.0364,
新宿 (Shinjuku),2021-10-24,10:01～11:00,0.0389,0.0347,0.0363,
新宿 (Shinjuku),2021-10-24,09:01～10:00,0.0401,0.0345,0.0365,
新宿 (Shinjuku),2021-10-24,08:01～09:00,0.0394,0.0344,0.0365,
新宿 (Shinjuku),2021-10-24,07:01～08:00,0.0394,0.0345,0.0365,
新宿 (Shinjuku),2021-10-24,06:01～07:00,0.0399,0.0336,0.0360,
新宿 (Shinjuku),2021-10-24,05:01～06:00,0.0387,0.0342,0.0362,
新宿 (Shinjuku),2021-10-24,04:01～05:00,0.0393,0.0334,0.0361,
新宿 (Shinjuku),2021-10-24,03:01～04:00,0.0400,0.0348,0.0364,
新宿 (Shinjuku),2021-10-24,02:01～03:00,0.0406,0.0342,0.0362,
新宿 (Shinjuku),2021-10-24,01:01～02:00,0.0379,0.0334,0.0358,
新宿 (Shinjuku),2021-10-24,00:01～01:00,0.0388,0.0332,0.0358,
新宿 (Shinjuku),2021-10-23,23:01～24:00,0.0395,0.0331,0.0362,
新宿 (Shinjuku),2021-10-23,22:01～23:00,0.0373,0.0339,0.0361,
新宿 (Shinjuku),2021-10-23,21:01～22:00,0.0389,0.0336,0.0359,
新宿 (Shinjuku),2021-10-23,20:01～21:00,0.0389,0.0330,0.0359,
新宿 (Shinjuku),2021-10-23,19:01～20:00,0.0398,0.0335,0.0360,
新宿 (Shinjuku),2021-10-23,18:01～19:00,0.0397,0.0332,0.0353,
新宿 (Shinjuku),2021-10-23,17:01～18:00,0.0373,0.0334,0.0354,
新宿 (Shinjuku),2021-10-23,16:01～17:00,0.0385,0.0343,0.0356,
新宿 (Shinjuku),2021-10-23,08:01～09:00,0.0372,0.0335,0.0355,
新宿 (Shinjuku),2021-10-23,07:01～08:00,0.0371,0.0329,0.0353,
新宿 (Shinjuku),2021-10-23,06:01～07:00,0.0384,0.0329,0.0355,
新宿 (Shinjuku),2021-10-23,05:01～06:00,0.0389,0.0326,0.0356,
新宿 (Shinjuku),2021-10-23,04:01～05:00,0.0381,0.0329,0.0356,
新宿 (Shinjuku),2021-10-23,03:01～04:00,0.0372,0.0329,0.0352,
新宿 (Shinjuku),2021-10-23,02:01～03:00,0.0376,0.0322,0.0356,
新宿 (Shinjuku),2021-10-23,01:01～02:00,0.0385,0.0330,0.0353,
新宿 (Shinjuku),2021-10-23,00:01～01:00,0.0380,0.0339,0.0361,
新宿 (Shinjuku),2021-10-22,23:01～24:00,0.0407,0.0349,0.0374,
新宿 (Shinjuku),2021-10-22,22:01～23:00,0.0441,0.0362,0.0401,
新宿 (Shinjuku),2021-10-22,21:01～22:00,0.0476,0.0399,0.0438,
新宿 (Shinjuku),2021-10-22,20:01～21:00,0.0463,0.0366,0.0410,
新宿 (Shinjuku),2021-10-22,19:01～20:00,0.0417,0.0341,0.0367,
新宿 (Shinjuku),2021-10-22,18:01～19:00,0.0418,0.0355,0.0380,
新宿 (Shinjuku),2021-10-22,17:01～18:00,0.0438,0.0363,0.0396,
新宿 (Shinjuku),2021-10-22,16:01～17:00,0.0423,0.0355,0.0381,
新宿 (Shinjuku),2021-10-22,15:01～16:00,0.0416,0.0351,0.0374,
新宿 (Shinjuku),2021-10-22,14:01～15:00,0.0440,0.0353,0.0392,
新宿 (Shinjuku),2021-10-22,13:01～14:00,0.0496,0.0409,0.0450,
新宿 (Shinjuku),2021-10-22,12:01～13:00,0.0496,0.0404,0.0445,
新宿 (Shinjuku),2021-10-22,11:01～12:00,0.0479,0.0387,0.0437,
新宿 (Shinjuku),2021-10-22,10:01～11:00,0.0479,0.0409,0.0449,
新宿 (Shinjuku),2021-10-22,09:01～10:00,0.0442,0.0386,0.0415,
新宿 (Shinjuku),2021-10-22,08:01～09:00,0.0459,0.0385,0.0432,
新宿 (Shinjuku),2021-10-22,07:01～08:00,0.0467,0.0391,0.0423,
新宿 (Shinjuku),2021-10-22,06:01～07:00,0.0456,0.0386,0.0422,
新宿 (Shinjuku),2021-10-22,05:01～06:00,0.0441,0.0357,0.0396,
新宿 (Shinjuku),2021-10-22,04:01～05:00,0.0412,0.0353,0.0380,
新宿 (Shinjuku),2021-10-22,03:01～04:00,0.0428,0.0360,0.0393,
新宿 (Shinjuku),2021-10-22,02:01～03:00,0.0435,0.0355,0.0391,
新宿 (Shinjuku),2021-10-22,01:01～02:00,0.0394,0.0341,0.0367,
新宿 (Shinjuku),2021-10-22,00:01～01:00,0.0389,0.0340,0.0362,
新宿 (Shinjuku),2021-10-21,23:01～24:00,0.0384,0.0341,0.0361,
新宿 (Shinjuku),2021-10-21,22:01～23:00,0.0378,0.0334,0.0360,
新宿 (Shinjuku),2021-10-21,21:01～22:00,0.0382,0.0342,0.0363,
新宿 (Shinjuku),2021-10-21,20:01～21:00,0.0393,0.0341,0.0362,
新宿 (Shinjuku),2021-10-21,19:01～20:00,0.0388,0.0343,0.0362,
新宿 (Shinjuku),2021-10-21,18:01～19:00,0.0383,0.0338,0.0360,
新宿 (Shinjuku),2021-10-21,17:01～18:00,0.0379,0.0335,0.0360,
新宿 (Shinjuku),2021-10-21,16:01～17:00,0.0388,0.0338,0.0359,
新宿 (Shinjuku),2021-10-21,15:01～16:00,0.0391,0.0340,0.0361,
新宿 (Shinjuku),2021-10-21,14:01～15:00,0.0378,0.0335,0.0358,
新宿 (Shinjuku),2021-10-21,13:01～14:00,0.0407,0.0335,0.0358,
新宿 (Shinjuku),2021-10-21,12:01～13:00,0.0382,0.0341,0.0360,
新宿 (Shinjuku),2021-10-21,11:01～12:00,0.0374,0.0338,0.0358,
新宿 (Shinjuku),2021-10-21,10:01～11:00,0.0401,0.0343,0.0362,
新宿 (Shinjuku),2021-10-21,09:01～10:00,0.0382,0.0342,0.0360,
新宿 (Shinjuku),2021-10-21,08:01～09:00,0.0377,0.0336,0.0358,
新宿 (Shinjuku),2021-10-21,07:01～08:00,0.0394,0.0326,0.0362,
新宿 (Shinjuku),2021-10-21,06:01～07:00,0.0407,0.0337,0.0362,
新宿 (Shinjuku),2021-10-21,05:01～06:00,0.0396,0.0342,0.0362,
新宿 (Shinjuku),2021-10-21,04:01～05:00,0.0387,0.0338,0.0359,
新宿 (Shinjuku),2021-10-21,03:01～04:00,0.0383,0.0342,0.0362,
新宿 (Shinjuku),2021-10-21,02:01～03:00,0.0401,0.0343,0.0359,
新宿 (Shinjuku),2021-10-21,01:01～02:00,0.0386,0.0340,0.0360,
新宿 (Shinjuku),2021-10-21,00:01～01:00,0.0391,0.0341,0.0360,
新宿 (Shinjuku),2021-10-20,23:01～24:00,0.0387,0.0334,0.0360,
新宿 (Shinjuku),2021-10-20,22:01～23:00,0.0392,0.0328,0.0361,
新宿 (Shinjuku),2021-10-20,21:01～22:00,0.0394,0.0344,0.0362,
新宿 (Shinjuku),2021-10-20,20:01～21:00,0.0392,0.0346,0.0365,
新宿 (Shinjuku),2021-10-20,19:01～20:00,0.0398,0.0337,0.0360,
新宿 (Shinjuku),2021-10-20,18:01～19:00,0.0402,0.0342,0.0362,
新宿 (Shinjuku),2021-10-20,17:01～18:00,0.0384,0.0338,0.0363,
新宿 (Shinjuku),2021-10-20,16:01～17:00,0.0397,0.0339,0.0363,
新宿 (Shinjuku),2021-10-20,15:01～16:00,0.0398,0.0348,0.0363,
新宿 (Shinjuku),2021-10-20,14:01～15:00,0.0386,0.0341,0.0365,
新宿 (Shinjuku),2021-10-20,13:01～14:00,0.0409,0.0345,0.0367,
新宿 (Shinjuku),2021-10-20,12:01～13:00,0.0397,0.0351,0.0365,
新宿 (Shinjuku),2021-10-20,11:01～12:00,0.0394,0.0344,0.0365,
新宿 (Shinjuku),2021-10-20,10:01～11:00,0.0392,0.0342,0.0365,
新宿 (Shinjuku),2021-10-20,09:01～10:00,0.0408,0.0348,0.0365,
新宿 (Shinjuku),2021-10-20,08:01～09:00,0.0394,0.0347,0.0366,
新宿 (Shinjuku),2021-10-20,07:01～08:00,0.0413,0.0346,0.0365,
新宿 (Shinjuku),2021-10-20,06:01～07:00,0.0393,0.0341,0.0361,
新宿 (Shinjuku),2021-10-20,05:01～06:00,0.0401,0.0340,0.0363,
新宿 (Shinjuku),2021-10-20,04:01～05:00,0.0386,0.0338,0.0363,
新宿 (Shinjuku),2021-10-20,03:01～04:00,0.0390,0.0338,0.0362,
新宿 (Shinjuku),2021-10-20,02:01～03:00,0.0396,0.0345,0.0365,
新宿 (Shinjuku),2021-10-20,01:01～02:00,0.0416,0.0353,0.0378,
新宿 (Shinjuku),2021-10-20,00:01～01:00,0.0472,0.0368,0.0418,
新宿 (Shinjuku),2021-10-19,23:01～24:00,0.0537,0.0426,0.0482,
新宿 (Shinjuku),2021-10-19,22:01～23:00,0.0538,0.0444,0.0482,
新宿 (Shinjuku),2021-10-19,21:01～22:00,0.0491,0.0402,0.0442,
新宿 (Shinjuku),2021-10-19,20:01～21:00,0.0423,0.0344,0.0375,
新宿 (Shinjuku),2021-10-19,19:01～20:00,0.0387,0.0342,0.0360,
新宿 (Shinjuku),2021-10-19,18:01～19:00,0.0382,0.0328,0.0362,
新宿 (Shinjuku),2021-10-19,17:01～18:00,0.0391,0.0342,0.0364,
新宿 (Shinjuku),2021-10-19,16:01～17:00,0.0401,0.0339,0.0364,
新宿 (Shinjuku),2021-10-19,15:01～16:00,0.0390,0.0340,0.0361,
新宿 (Shinjuku),2021-10-19,14:01～15:00,0.0396,0.0343,0.0362,
新宿 (Shinjuku),2021-10-19,13:01～14:00,0.0383,0.0338,0.0360,
新宿 (Shinjuku),2021-10-19,12:01～13:00,0.0389,0.0339,0.0365,
新宿 (Shinjuku),2021-10-19,11:01～12:00,0.0407,0.0343,0.0370,
新宿 (Shinjuku),2021-10-19,10:01～11:00,0.0414,0.0354,0.0383,
新宿 (Shinjuku),2021-10-19,09:01～10:00,0.0429,0.0362,0.0392,
新宿 (Shinjuku),2021-10-19,08:01～09:00,0.0463,0.0380,0.0425,
新宿 (Shinjuku),2021-10-19,07:01～08:00,0.0450,0.0373,0.0412,
新宿 (Shinjuku),2021-10-19,06:01～07:00,0.0420,0.0342,0.0372,
新宿 (Shinjuku),2021-10-19,05:01～06:00,0.0422,0.0354,0.0375,
新宿 (Shinjuku),2021-10-19,04:01～05:00,0.0418,0.0362,0.0393,
新宿 (Shinjuku),2021-10-19,03:01～04:00,0.0397,0.0346,0.0371,
新宿 (Shinjuku),2021-10-19,02:01～03:00,0.0394,0.0340,0.0368,
新宿 (Shinjuku),2021-10-19,01:01～02:00,0.0404,0.0351,0.0371,
新宿 (Shinjuku),2021-10-19,00:01～01:00,0.0408,0.0349,0.0371,
新宿 (Shinjuku),2021-10-18,23:01～24:00,0.0390,0.0345,0.0366,
新宿 (Shinjuku),2021-10-18,22:01～23:00,0.0400,0.0346,0.0368,
新宿 (Shinjuku),2021-10-18,21:01～22:00,0.0407,0.0352,0.0374,
新宿 (Shinjuku),2021-10-18,20:01～21:00,0.0404,0.0350,0.0375,
新宿 (Shinjuku),2021-10-18,19:01～20:00,0.0409,0.0362,0.0381,
新宿 (Shinjuku),2021-10-18,18:01～19:00,0.0421,0.0360,0.0382,
新宿 (Shinjuku),2021-10-18,17:01～18:00,0.0405,0.0344,0.0369,
新宿 (Shinjuku),2021-10-18,16:01～17:00,0.0424,0.0332,0.0372,
新宿 (Shinjuku),2021-10-18,15:01～16:00,0.0452,0.0358,0.0398,
新宿 (Shinjuku),2021-10-18,14:01～15:00,0.0460,0.0367,0.0410,
新宿 (Shinjuku),2021-10-18,13:01～14:00,0.0482,0.0362,0.0421,
新宿 (Shinjuku),2021-10-18,12:01～13:00,0.0378,0.0332,0.0359,
新宿 (Shinjuku),2021-10-18,11:01～12:00,0.0388,0.0342,0.0361,
新宿 (Shinjuku),2021-10-18,10:01～11:00,0.0378,0.0333,0.0357,
新宿 (Shinjuku),2021-10-18,09:01～10:00,0.0403,0.0340,0.0358,
新宿 (Shinjuku),2021-10-18,08:01～09:00,0.0390,0.0335,0.0359,
新宿 (Shinjuku),2021-10-18,07:01～08:00,0.0385,0.0340,0.0358,
新宿 (Shinjuku),2021-10-18,06:01～07:00,0.0387,0.0338,0.0359,
新宿 (Shinjuku),2021-10-18,05:01～06:00,0.0395,0.0338,0.0362,
新宿 (Shinjuku),2021-10-18,04:01～05:00,0.0388,0.0342,0.0360,
新宿 (Shinjuku),2021-10-18,03:01～04:00,0.0404,0.0333,0.0362,
新宿 (Shinjuku),2021-10-18,02:01～03:00,0.0373,0.0334,0.0358,
新宿 (Shinjuku),2021-10-18,01:01～02:00,0.0384,0.0340,0.0359,
新宿 (Shinjuku),2021-10-18,00:01～01:00,0.0374,0.0334,0.0359,
